Location: Austin
(30.3000°N, 97.7500°W)
Time: 11:22:50
(UTC-05:00)

Cosmos 1464 Rocket - Pass Details

Date: 05 September 2024
Orbit: 953 x 1000 km, 82.9° (Epoch: 10 September)

Event Time Altitude Azimuth Distance (km) Brightness Sun altitude
Exits shadow 22:33:35 57° 279° (W) 1,143 4.4 -34.3°
Drops below altitude 10° 22:39:45 10° 356° (N) 2,752 6.7 -35.4°
Sets 22:42:21 0° 1° (N) 3,710 7.4 -35.8°
